• In Schweiz
  • Länderverzeichnis
  • Für 7 Tage
  • Wassertemperatur
  • Satellitenkarten
  • Wetterkarte
  • Widgets
  • user-avatar
    Anmelden

    Stündliche Wetter Velemya

    Heute, 25 September, Dienstag

    Zeit Temperatur Niederschläge Wind Luftdruck Luftfeuchtigkeit
    00:00 +10°C° 0.6 mm 9 m/S 736 mmHg 84%
    01:00 +10°C° 0.1 mm 8 m/S 735 mmHg 85%
    02:00 +10°C° 0.1 mm 8 m/S 735 mmHg 85%
    03:00 +10°C° 0.1 mm 7 m/S 735 mmHg 85%
    04:00 +9°C° 0 mm 7 m/S 735 mmHg 84%
    05:00 +8°C° 0 mm 6 m/S 735 mmHg 83%
    06:00 +8°C° 0 mm 6 m/S 735 mmHg 83%
    07:00 +8°C° 0 mm 6 m/S 735 mmHg 81%
    08:00 +8°C° 0 mm 7 m/S 736 mmHg 79%
    09:00 +8°C° 0 mm 7 m/S 736 mmHg 77%
    10:00 +9°C° 0 mm 7 m/S 736 mmHg 74%
    11:00 +9°C° 0 mm 7 m/S 737 mmHg 72%
    12:00 +10°C° 0 mm 7 m/S 737 mmHg 69%
    13:00 +10°C° 0.1 mm 7 m/S 738 mmHg 69%
    14:00 +10°C° 0.1 mm 7 m/S 738 mmHg 68%
    15:00 +10°C° 0.1 mm 7 m/S 739 mmHg 68%
    16:00 +9°C° 0 mm 7 m/S 739 mmHg 69%
    17:00 +8°C° 0 mm 7 m/S 740 mmHg 71%
    18:00 +8°C° 0 mm 6 m/S 741 mmHg 72%
    19:00 +7°C° 0 mm 6 m/S 741 mmHg 73%
    20:00 +7°C° 0 mm 6 m/S 742 mmHg 74%
    21:00 +7°C° 0 mm 6 m/S 742 mmHg 75%
    22:00 +5°C° 0 mm 6 m/S 743 mmHg 75%
    23:00 +5°C° 0 mm 6 m/S 743 mmHg 76%

    Morgen, 26 September, Mittwoch

    Zeit Temperatur Niederschläge Wind Luftdruck Luftfeuchtigkeit
    00:00 +6°C° 0 mm 5 m/S 744 mmHg 76%
    01:00 +6°C° 0 mm 5 m/S 744 mmHg 78%
    02:00 +5°C° 0 mm 5 m/S 745 mmHg 79%
    03:00 +5°C° 0 mm 5 m/S 745 mmHg 80%
    04:00 +3°C° 0 mm 5 m/S 746 mmHg 82%
    05:00 +3°C° 0 mm 5 m/S 746 mmHg 83%
    06:00 +4°C° 0 mm 4 m/S 747 mmHg 85%
    07:00 +3°C° 0 mm 5 m/S 748 mmHg 82%
    08:00 +5°C° 0 mm 5 m/S 748 mmHg 79%
    09:00 +4°C° 0 mm 6 m/S 749 mmHg 75%
    10:00 +6°C° 0 mm 5 m/S 749 mmHg 73%
    11:00 +6°C° 0 mm 5 m/S 750 mmHg 70%
    12:00 +6°C° 0 mm 5 m/S 750 mmHg 68%
    13:00 +6°C° 0 mm 5 m/S 750 mmHg 65%
    14:00 +7°C° 0 mm 4 m/S 750 mmHg 63%
    15:00 +7°C° 0 mm 4 m/S 751 mmHg 61%
    16:00 +7°C° 0 mm 4 m/S 751 mmHg 62%
    17:00 +8°C° 0 mm 3 m/S 751 mmHg 63%
    18:00 +7°C° 0 mm 2 m/S 751 mmHg 64%
    19:00 +7°C° 0 mm 2 m/S 751 mmHg 66%
    20:00 +5°C° 0 mm 3 m/S 751 mmHg 69%
    21:00 +4°C° 0 mm 3 m/S 751 mmHg 71%
    22:00 +4°C° 0 mm 4 m/S 750 mmHg 70%
    23:00 +4°C° 0 mm 4 m/S 750 mmHg 70%

    übermorgen, 27 September, Donnerstag

    Zeit Temperatur Niederschläge Wind Luftdruck Luftfeuchtigkeit
    00:00 +3°C° 0 mm 5 m/S 749 mmHg 70%
    01:00 +3°C° 0 mm 5 m/S 749 mmHg 69%
    02:00 +3°C° 0 mm 6 m/S 748 mmHg 69%
    03:00 +4°C° 0 mm 6 m/S 747 mmHg 69%
    04:00 +4°C° 0.1 mm 7 m/S 747 mmHg 67%
    05:00 +4°C° 0.1 mm 8 m/S 746 mmHg 66%
    06:00 +3°C° 0.1 mm 9 m/S 745 mmHg 64%
    07:00 +3°C° 0.8 mm 9 m/S 744 mmHg 67%
    08:00 +3°C° 0.8 mm 10 m/S 743 mmHg 71%
    09:00 +3°C° 0.8 mm 11 m/S 743 mmHg 74%
    10:00 +5°C° 0.7 mm 10 m/S 742 mmHg 77%
    11:00 +5°C° 0.7 mm 10 m/S 742 mmHg 79%
    12:00 +5°C° 0.7 mm 10 m/S 741 mmHg 81%
    13:00 +6°C° 0.4 mm 9 m/S 741 mmHg 82%
    14:00 +6°C° 0.4 mm 9 m/S 741 mmHg 83%
    15:00 +7°C° 0.4 mm 8 m/S 741 mmHg 84%
    16:00 +7°C° 0.3 mm 8 m/S 741 mmHg 85%
    17:00 +7°C° 0.3 mm 8 m/S 741 mmHg 86%
    18:00 +8°C° 0.3 mm 7 m/S 741 mmHg 86%
    19:00 +8°C° 0.1 mm 6 m/S 742 mmHg 86%
    20:00 +7°C° 0.1 mm 6 m/S 742 mmHg 87%
    21:00 +7°C° 0.1 mm 5 m/S 743 mmHg 87%
    22:00 +7°C° 0 mm 5 m/S 743 mmHg 86%
    23:00 +6°C° 0 mm 4 m/S 743 mmHg 86%

    28 September, Freitag

    Zeit Temperatur Niederschläge Wind Luftdruck Luftfeuchtigkeit
    00:00 +6°C° 0 mm 4 m/S 744 mmHg 86%
    01:00 +5°C° 0 mm 4 m/S 744 mmHg 86%
    02:00 +5°C° 0 mm 4 m/S 744 mmHg 87%
    03:00 +5°C° 0 mm 4 m/S 745 mmHg 87%
    04:00 +4°C° 0 mm 4 m/S 745 mmHg 88%
    05:00 +4°C° 0 mm 4 m/S 745 mmHg 89%
    06:00 +4°C° 0 mm 4 m/S 745 mmHg 90%
    07:00 +5°C° 0 mm 4 m/S 745 mmHg 85%
    08:00 +6°C° 0 mm 5 m/S 745 mmHg 79%
    09:00 +8°C° 0 mm 5 m/S 745 mmHg 73%
    10:00 +9°C° 0 mm 6 m/S 744 mmHg 68%
    11:00 +11°C° 0 mm 7 m/S 744 mmHg 62%
    12:00 +13°C° 0 mm 8 m/S 743 mmHg 57%
    13:00 +13°C° 0 mm 8 m/S 743 mmHg 63%
    14:00 +13°C° 0 mm 9 m/S 742 mmHg 69%
    15:00 +13°C° 0 mm 9 m/S 741 mmHg 75%
    16:00 +13°C° 0 mm 9 m/S 741 mmHg 76%
    17:00 +13°C° 0 mm 9 m/S 741 mmHg 77%
    18:00 +13°C° 0 mm 8 m/S 740 mmHg 78%
    19:00 +13°C° 0.1 mm 8 m/S 740 mmHg 79%
    20:00 +13°C° 0.1 mm 8 m/S 739 mmHg 80%
    21:00 +13°C° 0.1 mm 8 m/S 739 mmHg 80%
    22:00 +13°C° 0.4 mm 8 m/S 739 mmHg 81%
    23:00 +12°C° 0.4 mm 7 m/S 740 mmHg 81%

    29 September, Samstag

    Zeit Temperatur Niederschläge Wind Luftdruck Luftfeuchtigkeit
    00:00 +12°C° 0.4 mm 7 m/S 740 mmHg 82%
    01:00 +10°C° 0 mm 6 m/S 741 mmHg 83%
    02:00 +9°C° 0 mm 5 m/S 742 mmHg 84%
    03:00 +7°C° 0 mm 5 m/S 743 mmHg 85%
    04:00 +6°C° 0 mm 4 m/S 743 mmHg 86%
    05:00 +5°C° 0 mm 4 m/S 744 mmHg 87%
    06:00 +4°C° 0 mm 3 m/S 745 mmHg 88%
    07:00 +4°C° 0 mm 3 m/S 746 mmHg 82%
    08:00 +5°C° 0 mm 3 m/S 746 mmHg 75%
    09:00 +5°C° 0 mm 3 m/S 747 mmHg 69%
    10:00 +7°C° 0 mm 3 m/S 747 mmHg 61%
    11:00 +8°C° 0 mm 3 m/S 748 mmHg 53%
    12:00 +9°C° 0 mm 3 m/S 748 mmHg 46%
    13:00 +9°C° 0 mm 2 m/S 748 mmHg 44%
    14:00 +10°C° 0 mm 2 m/S 748 mmHg 42%
    15:00 +10°C° 0 mm 2 m/S 748 mmHg 40%
    16:00 +9°C° 0 mm 2 m/S 748 mmHg 43%
    17:00 +9°C° 0 mm 2 m/S 748 mmHg 46%
    18:00 +8°C° 0 mm 2 m/S 749 mmHg 50%
    19:00 +8°C° 0 mm 2 m/S 749 mmHg 52%
    20:00 +7°C° 0 mm 2 m/S 749 mmHg 53%
    21:00 +7°C° 0 mm 2 m/S 750 mmHg 55%
    22:00 +6°C° 0 mm 2 m/S 750 mmHg 58%
    23:00 +5°C° 0 mm 2 m/S 750 mmHg 61%

    30 September, Sonntag

    Zeit Temperatur Niederschläge Wind Luftdruck Luftfeuchtigkeit
    00:00 +5°C° 0 mm 2 m/S 751 mmHg 64%
    01:00 +4°C° 0 mm 2 m/S 751 mmHg 66%
    02:00 +4°C° 0 mm 2 m/S 751 mmHg 68%
    03:00 +4°C° 0 mm 2 m/S 752 mmHg 70%
    04:00 +3°C° 0 mm 2 m/S 752 mmHg 71%
    05:00 +3°C° 0 mm 2 m/S 752 mmHg 73%
    06:00 +3°C° 0 mm 2 m/S 753 mmHg 75%
    07:00 +4°C° 0 mm 2 m/S 753 mmHg 71%
    08:00 +5°C° 0 mm 2 m/S 753 mmHg 68%
    09:00 +6°C° 0 mm 2 m/S 754 mmHg 64%
    10:00 +7°C° 0 mm 2 m/S 754 mmHg 61%
    11:00 +8°C° 0 mm 2 m/S 754 mmHg 57%
    12:00 +9°C° 0 mm 2 m/S 754 mmHg 53%
    13:00 +9°C° 0 mm 2 m/S 754 mmHg 51%
    14:00 +10°C° 0 mm 2 m/S 754 mmHg 49%
    15:00 +11°C° 0 mm 1 m/S 754 mmHg 48%
    16:00 +10°C° 0 mm 1 m/S 754 mmHg 50%
    17:00 +9°C° 0 mm 1 m/S 754 mmHg 53%
    18:00 +8°C° 0 mm 1 m/S 754 mmHg 56%
    19:00 +8°C° 0 mm 1 m/S 754 mmHg 57%
    20:00 +8°C° 0 mm 1 m/S 754 mmHg 58%
    21:00 +7°C° 0 mm 1 m/S 754 mmHg 59%
    22:00 +7°C° 0 mm 1 m/S 754 mmHg 60%
    23:00 +5°C° 0 mm 2 m/S 754 mmHg 62%
    Mehr zeigen